Flag Weather past 2 weeks in Durrës, Albania

Now
36 °F

Clear.


Feels Like: 36 °F
Forecast: 47 / 60 °F
Wind: 2 mph from South

Location: Tirana Airport

Current Time: Nov 22, 2014 at 4:31:01 AM

Latest Report: Nov 22, 2014 at 3:50 AM


Visibility: 10 mi

Pressure: 30.21 "Hg

Humidity: 93%

Dew point: 34 °F

Location of DurrësLocation

Historic Weather in Durrës — Graph

°F

Durrës temperature yesterday

Maximum temperature yesterday: 61 °F (at 1:20 PM)
Minimum temperature yesterday: 34 °F (at 5:50 AM)
Average temperature yesterday: 45 °F

Past Weeks' High & Low Weather Summary

 TemperatureHumidityPressure
High75 °F (Nov 7, 11:20 AM)100% (Nov 20, 6:20 AM)30.21 "Hg (Nov 20, 6:20 AM)
Low34 °F (Nov 21, 5:50 AM)36% (Nov 12, 1:50 PM)29.74 "Hg (Nov 13, 11:50 AM)
Average57 °F79%29.98 "Hg
* Reported Nov 7 3:20 AM — Nov 22 3:20 AM, Durrës, Weather by CustomWeather, © 2014

Note: Actual official high and low records may vary slightly from our data, if they occured in-between our weather recording intervals... More about our weather records

Advertising

Durrës weather history for previous 24 hours

 ConditionsComfort  
Time TempWeatherWind HumidityBarometerVisibility
3:20 AM
Nov 22
34 °FClear.3 mph87%30.21 "Hg10 mi
2:50 AM37 °FClear.2 mph87%30.21 "Hg10 mi
2:20 AM36 °FClear.2 mph87%30.21 "Hg10 mi
1:50 AM36 °FClear.3 mph87%30.21 "Hg10 mi
1:20 AM36 °FClear.5 mph93%30.21 "Hg10 mi
12:50 AM36 °FClear.2 mph93%30.18 "Hg10 mi
12:20 AM36 °FClear.No wind93%30.18 "Hg10 mi
11:50 PM
Nov 21
39 °FClear.3 mph93%30.18 "Hg10 mi
11:20 PM37 °FClear.3 mph87%30.18 "Hg10 mi
10:20 PM37 °FClear.No wind93%30.18 "Hg10 mi
9:50 PM37 °FClear.2 mph93%30.18 "Hg10 mi
9:20 PM39 °FClear.No wind93%30.18 "Hg10 mi
8:50 PM39 °FClear.2 mph81%30.18 "Hg10 mi
8:20 PM43 °FClear.No wind87%30.18 "Hg10 mi
7:50 PM45 °FClear.2 mph76%30.18 "Hg10 mi
7:20 PM41 °FPassing clouds.3 mph87%30.18 "HgN/A
6:50 PM45 °FPassing clouds.3 mph81%30.15 "HgN/A
6:20 PM45 °FClear.No wind76%30.15 "Hg10 mi
5:50 PM48 °FPassing clouds.3 mph62%30.15 "HgN/A
4:50 PM52 °FClear.3 mph54%30.15 "Hg10 mi
4:20 PM54 °FClear.5 mph47%30.12 "Hg10 mi
3:50 PM55 °FSunny.7 mph47%30.12 "Hg10 mi
3:20 PM57 °FSunny.10 mph44%30.12 "Hg10 mi
2:50 PM59 °FSunny.9 mph42%30.12 "Hg10 mi
2:20 PM59 °FSunny.8 mph42%30.12 "Hg10 mi
1:50 PM59 °FSunny.10 mph42%30.12 "Hg10 mi
1:20 PM61 °FPassing clouds.6 mph42%30.15 "HgN/A
12:50 PM59 °FPassing clouds.5 mph48%30.15 "HgN/A
12:20 PM57 °FPassing clouds.7 mph51%30.15 "HgN/A
11:50 AM57 °FPassing clouds.6 mph51%30.18 "HgN/A
11:20 AM55 °FSunny.5 mph51%30.18 "Hg10 mi
10:50 AM54 °FPassing clouds.3 mph58%30.18 "HgN/A
10:20 AM52 °FPassing clouds.3 mph67%30.18 "HgN/A
9:50 AM52 °FSunny.No wind58%30.18 "Hg10 mi
9:20 AM48 °FSunny.2 mph71%30.18 "Hg10 mi
8:50 AM45 °FSunny.3 mph81%30.18 "Hg10 mi
8:20 AM43 °FSunny.2 mph87%30.18 "Hg10 mi
7:50 AM39 °FSunny.1 mph93%30.18 "Hg10 mi
7:20 AM36 °FSunny.2 mph93%30.18 "Hg10 mi
6:50 AM36 °FSunny.2 mph93%30.18 "Hg10 mi
6:20 AM36 °FClear.No wind93%30.15 "Hg10 mi
5:50 AM34 °FClear.No wind100%30.15 "Hg10 mi
5:20 AM36 °FClear.No wind93%30.15 "Hg10 mi
4:50 AM36 °FClear.2 mph93%30.15 "Hg10 mi
4:20 AM36 °FClear.3 mph87%30.15 "Hg10 mi
Weather by CustomWeather, © 2014

See weather overviewHow to use our weather pages